CW4541 Weather Reports


time (UTC)temp
C
wind
direction
speed
KPH
gust
KPH
rain 1hr
cm
rain 24hr
cm
rain mn
cm
humidity
%
barometer
mb
20260901090605 10 186 0.0 0.0 0.00 0.46 0.00 84 1027.1
20260901090111 10 186 0.0 1.6 0.00 0.46 0.00 84 1027.1
20260901080605 10 160 0.0 3.2 0.00 0.46 0.00 84 1027.3
20260901080111 10 158 0.0 1.6 0.00 0.46 0.00 83 1027.3
20260901070605 10 197 0.0 1.6 0.00 0.46 0.00 83 1027.5
20260901070110 10 198 0.0 1.6 0.00 0.46 0.00 84 1027.4
20260901060111 11 198 0.0 1.6 0.00 0.46 0.00 83 1027.2
20260901050606 11 198 0.0 0.0 0.00 0.46 0.46 82 1027.1
20260901050111 11 198 0.0 0.0 0.00 0.46 0.46 82 1027.1
20260901040606 11 199 0.0 0.0 0.00 0.46 0.46 81 1026.1
20260901030606 12 222 0.0 0.0 0.00 0.46 0.46 80 1026.1
20260901030112 12 222 0.0 0.0 0.00 0.46 0.46 79 1026.0
20260901020607 13 205 0.0 4.8 0.00 0.46 0.46 76 1025.6
20260901020112 13 211 0.0 4.8 0.00 0.46 0.46 75 1025.6
20260901010607 15 210 0.0 9.7 0.00 0.46 0.46 73 1025.2
20260901010112 14 178 1.6 9.7 0.00 0.46 0.46 73 1025.3
20260901000607 15 201 1.6 9.7 0.00 0.46 0.46 69 1026.0
20260831230606 16 168 0.0 8.0 0.00 0.46 0.46 68 1025.9
20260831230112 16 159 0.0 8.0 0.00 0.46 0.46 69 1025.9
20260831220112 15 119 0.0 3.2 0.00 0.46 0.46 75 1025.7
20260831200112 13 7 0.0 3.2 0.00 1.27 0.46 83 1027.3
20260831190606 12 153 0.0 0.0 0.15 1.68 0.46 84 1028.1
20260831190112 11 153 0.0 1.6 0.18 1.68 0.46 83 1028.4
20260831180606 11 192 0.0 8.0 0.25 1.52 0.30 82 1028.7
20260831170606 11 193 1.6 9.7 0.05 1.27 0.05 81 1028.5
20260831170111 11 173 1.6 9.7 0.05 1.27 0.05 80 1028.5
20260831160606 12 155 4.8 22.5 0.00 1.22 0.00 76 1026.7
20260831160111 12 172 8.0 20.9 0.00 1.22 0.00 75 1026.6
20260831150606 13 170 4.8 29.0 0.00 1.22 0.00 67 1025.3
20260831150112 13 151 11.3 29.0 0.00 1.22 0.00 66 1024.9
20260831140605 13 135 1.6 9.7 0.00 1.22 0.00 70 1024.1
20260831140112 13 138 1.6 8.0 0.00 1.22 0.00 70 1024.2
20260831130606 12 214 0.0 8.0 0.00 1.22 0.00 73 1023.9
20260831120111 12 128 0.0 0.0 0.00 1.22 0.00 73 1023.4
20260831110605 12 176 0.0 8.0 0.00 1.22 0.00 70 1023.1
20260831110111 12 181 0.0 8.0 0.00 1.22 0.00 70 1023.1
20260831100111 13 142 1.6 11.3 0.00 1.22 0.00 70 1023.2